This is the latest recevied weather packets stored in our database for station/object YO6LRV-3. If no packets are shown the sender has not sent any weather packets the latest 1 day(s).
| Time | Temp. | Humidity | Pressure | Rain* | Wind** | Luminosity | Snow |
|---|---|---|---|---|---|---|---|
| 1777793763 | 10° C | 54% | 1022 hPa | - | - | - | - |
| 1777792863 | 9.44° C | 55% | 1021.8 hPa | - | - | - | - |
| 1777791965 | 8.33° C | 58% | 1021.9 hPa | - | - | - | - |
| 1777791065 | 7.78° C | 59% | 1021.8 hPa | - | - | - | - |
| 1777790165 | 7.78° C | 59% | 1021.8 hPa | - | - | - | - |
| 1777789265 | 7.22° C | 60% | 1021.7 hPa | - | - | - | - |
| 1777788365 | 6.11° C | 60% | 1020.9 hPa | - | - | - | - |
| 1777787465 | 6.11° C | 60% | 1021.7 hPa | - | - | - | - |
| 1777786564 | 6.11° C | 61% | 1021.6 hPa | - | - | - | - |
| 1777785664 | 5.56° C | 61% | 1021.5 hPa | - | - | - | - |
| 1777784764 | 5° C | 61% | 1021.3 hPa | - | - | - | - |
| 1777783864 | 5° C | 63% | 1021.2 hPa | - | - | - | - |
| 1777782964 | 4.44° C | 63% | 1021.1 hPa | - | - | - | - |
| 1777782064 | 4.44° C | 67% | 1021 hPa | - | - | - | - |
| 1777781164 | 4.44° C | 66% | 1020.9 hPa | - | - | - | - |
| 1777780263 | 4.44° C | 67% | 1020.8 hPa | - | - | - | - |
| 1777779363 | 4.44° C | 66% | 1020.8 hPa | - | - | - | - |
| 1777778463 | 4.44° C | 64% | 1020.6 hPa | - | - | - | - |
| 1777777563 | 4.44° C | 60% | 1020.6 hPa | - | - | - | - |
| 1777776663 | 5° C | 57% | 1020.6 hPa | - | - | - | - |
| 1777775763 | 5° C | 59% | 1020.6 hPa | - | - | - | - |
| 1777774863 | 5° C | 60% | 1020.5 hPa | - | - | - | - |
| 1777773963 | 5° C | 62% | 1020.4 hPa | - | - | - | - |
| 1777773062 | 5.56° C | 60% | 1020.4 hPa | - | - | - | - |
| 1777771262 | 5.56° C | 59% | 1020.4 hPa | - | - | - | - |
* Rain since midnight (hover to see other rain measurements)
** Current wind speed in m/s (hover to see current wind gust speed)